Location: Amberg
(48.0613°N, 10.6820°E)
Time: 00:45:21
(UTC+00:00)

NOAA 6 - Pass Details

Date: 18 November 2025
Orbit: 766 x 782 km, 98.6° (Epoch: 05 December)

Event Time Altitude Azimuth Distance (km) Brightness Sun altitude
Rises 17:18:03 0° 145° (SE) 3,253 7.0 -16.8°
Reaches altitude 10° 17:20:26 10° 140° (SE) 2,327 6.2 -17.2°
Maximum altitude 17:25:19 46° 68° (ENE) 1,033 4.2 -18.0°
Drops below altitude 10° 17:30:13 10° 356° (N) 2,334 6.5 -18.8°
Sets 17:32:36 0° 351° (N) 3,263 7.3 -19.2°
